EN

Hourly Weather Bolshie Medvedki

Today, 30 October, Friday

Time Temperature Precipitation Wind Pressure Humidity
00:00 +5°C° 0 mm 3 mps 744 mmHg 65%
01:00 +6°C° 0 mm 2 mps 744 mmHg 66%
02:00 +6°C° 0 mm 2 mps 743 mmHg 67%
03:00 +6°C° 0 mm 2 mps 743 mmHg 68%
04:00 +6°C° 0 mm 2 mps 743 mmHg 70%
05:00 +6°C° 0 mm 2 mps 742 mmHg 71%
06:00 +6°C° 0 mm 2 mps 742 mmHg 72%
07:00 +6°C° 0 mm 2 mps 742 mmHg 72%
08:00 +6°C° 0 mm 2 mps 742 mmHg 73%
09:00 +6°C° 0 mm 2 mps 742 mmHg 73%
10:00 +7°C° 0 mm 2 mps 742 mmHg 73%
11:00 +8°C° 0 mm 2 mps 742 mmHg 72%
12:00 +8°C° 0 mm 2 mps 742 mmHg 71%
13:00 +8°C° 0 mm 2 mps 741 mmHg 72%
14:00 +9°C° 0 mm 2 mps 741 mmHg 73%
15:00 +9°C° 0 mm 2 mps 741 mmHg 74%
16:00 +9°C° 0 mm 1 mps 741 mmHg 78%
17:00 +9°C° 0 mm 1 mps 741 mmHg 81%
18:00 +8°C° 0 mm 1 mps 741 mmHg 85%
19:00 +8°C° 0 mm 1 mps 741 mmHg 87%
20:00 +8°C° 0 mm 1 mps 741 mmHg 89%
21:00 +7°C° 0 mm 1 mps 741 mmHg 91%
22:00 +7°C° 0 mm 1 mps 741 mmHg 91%
23:00 +7°C° 0 mm 1 mps 741 mmHg 92%

Tomorrow, 31 October, Saturday

Time Temperature Precipitation Wind Pressure Humidity
00:00 +7°C° 0 mm 1 mps 741 mmHg 92%
01:00 +7°C° 0 mm 1 mps 741 mmHg 92%
02:00 +7°C° 0 mm 1 mps 740 mmHg 93%
03:00 +6°C° 0 mm 2 mps 740 mmHg 93%
04:00 +6°C° 0 mm 2 mps 741 mmHg 93%
05:00 +6°C° 0 mm 2 mps 741 mmHg 93%
06:00 +6°C° 0 mm 2 mps 741 mmHg 93%
07:00 +6°C° 0 mm 2 mps 741 mmHg 92%
08:00 +5°C° 0 mm 3 mps 741 mmHg 92%
09:00 +5°C° 0 mm 3 mps 741 mmHg 91%
10:00 +7°C° 0 mm 3 mps 741 mmHg 89%
11:00 +7°C° 0 mm 3 mps 742 mmHg 87%
12:00 +6°C° 0 mm 4 mps 742 mmHg 85%
13:00 +7°C° 0 mm 4 mps 742 mmHg 84%
14:00 +7°C° 0 mm 4 mps 742 mmHg 83%
15:00 +7°C° 0 mm 4 mps 743 mmHg 82%
16:00 +7°C° 0 mm 4 mps 743 mmHg 83%
17:00 +7°C° 0 mm 5 mps 743 mmHg 84%
18:00 +6°C° 0 mm 5 mps 743 mmHg 85%
19:00 +6°C° 0 mm 5 mps 743 mmHg 86%
20:00 +6°C° 0 mm 5 mps 744 mmHg 86%
21:00 +6°C° 0 mm 5 mps 744 mmHg 87%
22:00 +6°C° 0 mm 5 mps 744 mmHg 87%
23:00 +5°C° 0 mm 6 mps 744 mmHg 87%

Day after tomorrow, 1 November, Sunday

Time Temperature Precipitation Wind Pressure Humidity
00:00 +5°C° 0 mm 6 mps 744 mmHg 87%
01:00 +5°C° 0 mm 6 mps 744 mmHg 87%
02:00 +5°C° 0 mm 6 mps 744 mmHg 87%
03:00 +4°C° 0 mm 7 mps 744 mmHg 87%
04:00 +4°C° 0 mm 7 mps 744 mmHg 87%
05:00 +4°C° 0 mm 7 mps 744 mmHg 87%
06:00 +4°C° 0 mm 7 mps 744 mmHg 87%
07:00 +4°C° 0.7 mm 7 mps 744 mmHg 88%
08:00 +4°C° 0.7 mm 7 mps 744 mmHg 90%
09:00 +4°C° 0.7 mm 8 mps 744 mmHg 91%
10:00 +4°C° 0.6 mm 8 mps 744 mmHg 91%
11:00 +4°C° 0.6 mm 8 mps 744 mmHg 91%
12:00 +4°C° 0.6 mm 8 mps 744 mmHg 91%
13:00 +4°C° 0.5 mm 7 mps 744 mmHg 92%
14:00 +4°C° 0.5 mm 7 mps 743 mmHg 92%
15:00 +4°C° 0.5 mm 7 mps 743 mmHg 92%
16:00 +5°C° 0.3 mm 7 mps 743 mmHg 92%
17:00 +5°C° 0.3 mm 6 mps 743 mmHg 93%
18:00 +5°C° 0.3 mm 6 mps 743 mmHg 93%
19:00 +5°C° 0.1 mm 6 mps 743 mmHg 93%
20:00 +5°C° 0.1 mm 6 mps 743 mmHg 93%
21:00 +6°C° 0.1 mm 5 mps 743 mmHg 94%
22:00 +6°C° 0.2 mm 5 mps 743 mmHg 93%
23:00 +6°C° 0.2 mm 5 mps 743 mmHg 92%

2 November, Monday

Time Temperature Precipitation Wind Pressure Humidity
00:00 +6°C° 0.2 mm 5 mps 743 mmHg 91%
01:00 +6°C° 0.1 mm 4 mps 743 mmHg 91%
02:00 +6°C° 0.1 mm 4 mps 743 mmHg 92%
03:00 +6°C° 0.1 mm 4 mps 743 mmHg 93%
04:00 +6°C° 0 mm 4 mps 743 mmHg 92%
05:00 +6°C° 0 mm 4 mps 744 mmHg 91%
06:00 +6°C° 0 mm 4 mps 744 mmHg 90%
07:00 +6°C° 0 mm 4 mps 744 mmHg 90%
08:00 +5°C° 0 mm 4 mps 744 mmHg 89%
09:00 +5°C° 0 mm 4 mps 744 mmHg 88%
10:00 +6°C° 0.1 mm 4 mps 744 mmHg 87%
11:00 +6°C° 0.1 mm 4 mps 744 mmHg 85%
12:00 +7°C° 0.1 mm 4 mps 744 mmHg 84%
13:00 +7°C° 0.3 mm 4 mps 744 mmHg 84%
14:00 +8°C° 0.3 mm 3 mps 744 mmHg 85%
15:00 +7°C° 0.3 mm 3 mps 744 mmHg 86%
16:00 +7°C° 0 mm 3 mps 744 mmHg 87%
17:00 +7°C° 0 mm 3 mps 744 mmHg 87%
18:00 +7°C° 0 mm 3 mps 744 mmHg 88%
19:00 +7°C° 0 mm 3 mps 744 mmHg 89%
20:00 +5°C° 0 mm 3 mps 744 mmHg 91%
21:00 +5°C° 0 mm 3 mps 744 mmHg 93%
22:00 +6°C° 0 mm 2 mps 744 mmHg 94%
23:00 +6°C° 0 mm 2 mps 744 mmHg 95%

3 November, Tuesday

Time Temperature Precipitation Wind Pressure Humidity
00:00 +6°C° 0 mm 1 mps 744 mmHg 95%
01:00 +6°C° 0 mm 1 mps 744 mmHg 96%
02:00 +6°C° 0 mm 1 mps 744 mmHg 96%
03:00 +7°C° 0 mm 1 mps 744 mmHg 96%
04:00 +7°C° 0 mm 1 mps 744 mmHg 96%
05:00 +7°C° 0 mm 1 mps 745 mmHg 96%
06:00 +7°C° 0 mm 1 mps 745 mmHg 96%
07:00 +7°C° 0 mm 1 mps 745 mmHg 95%
08:00 +7°C° 0 mm 1 mps 745 mmHg 94%
09:00 +7°C° 0 mm 1 mps 746 mmHg 93%
10:00 +8°C° 0 mm 1 mps 746 mmHg 91%
11:00 +9°C° 0 mm 1 mps 746 mmHg 89%
12:00 +9°C° 0 mm 1 mps 746 mmHg 86%
13:00 +8°C° 0 mm 2 mps 746 mmHg 85%
14:00 +9°C° 0 mm 2 mps 746 mmHg 83%
15:00 +9°C° 0 mm 3 mps 746 mmHg 81%
16:00 +9°C° 0 mm 3 mps 746 mmHg 82%
17:00 +9°C° 0 mm 3 mps 747 mmHg 83%
18:00 +8°C° 0 mm 3 mps 747 mmHg 84%
19:00 +8°C° 0 mm 3 mps 747 mmHg 86%
20:00 +7°C° 0 mm 3 mps 747 mmHg 89%
21:00 +7°C° 0 mm 3 mps 748 mmHg 91%
22:00 +7°C° 0 mm 3 mps 748 mmHg 92%
23:00 +7°C° 0 mm 3 mps 748 mmHg 92%

4 November, Wednesday

Time Temperature Precipitation Wind Pressure Humidity
00:00 +5°C° 0 mm 3 mps 748 mmHg 92%
01:00 +5°C° 0 mm 3 mps 748 mmHg 93%
02:00 +5°C° 0 mm 3 mps 748 mmHg 94%
03:00 +5°C° 0 mm 3 mps 748 mmHg 95%
04:00 +5°C° 0 mm 3 mps 749 mmHg 95%
05:00 +5°C° 0 mm 3 mps 749 mmHg 95%
06:00 +4°C° 0 mm 3 mps 749 mmHg 95%
07:00 +5°C° 0 mm 3 mps 749 mmHg 94%
08:00 +5°C° 0 mm 3 mps 750 mmHg 93%
09:00 +6°C° 0 mm 2 mps 750 mmHg 92%
10:00 +7°C° 0 mm 3 mps 750 mmHg 88%
11:00 +8°C° 0 mm 3 mps 750 mmHg 84%
12:00 +9°C° 0 mm 3 mps 750 mmHg 80%
13:00 +10°C° 0 mm 3 mps 750 mmHg 78%
14:00 +10°C° 0 mm 3 mps 750 mmHg 77%
15:00 +10°C° 0 mm 3 mps 750 mmHg 75%
16:00 +9°C° 0 mm 3 mps 750 mmHg 80%
17:00 +9°C° 0 mm 3 mps 750 mmHg 84%
18:00 +8°C° 0 mm 3 mps 750 mmHg 89%
19:00 +7°C° 0 mm 3 mps 750 mmHg 90%
20:00 +7°C° 0 mm 3 mps 750 mmHg 91%
21:00 +7°C° 0 mm 3 mps 750 mmHg 92%
22:00 +7°C° 0 mm 3 mps 750 mmHg 92%
23:00 +7°C° 0 mm 3 mps 749 mmHg 92%
Show more